Location: Olda
(45.8833°N, 9.5500°E)
Time: 06:20:37
(UTC+00:00)

USA 234 - Pass Details

Date: 03 March 2021
Orbit: 1102 x 1105 km, 123.0° (Epoch: 08 April)

Event Time Altitude Azimuth Distance (km) Brightness Sun altitude
Exits shadow 19:39:56 33° 48° (NE) 1,767 4.1 -26.3°
Maximum altitude 19:43:11 81° 325° (NW) 1,120 3.2 -26.9°
Drops below altitude 10° 19:49:43 10° 240° (WSW) 2,957 5.9 -27.9°
Sets 19:52:11 0° 239° (WSW) 3,913 6.6 -28.3°
